| time (UTC) | temp C | wind direction | speed KPH | gust KPH | rain 1hr cm | rain 24hr cm | rain mn cm | humidity % | barometer mb |
| 20260506084851 | 0 | 259 | 1.6 | 3.2 | 0.00 | 0.00 | 0.00 | 83 | 1008.7 |
| 20260506084352 | 0 | 248 | 0.0 | 3.2 | 0.00 | 0.00 | 0.00 | 83 | 1008.7 |
| 20260506083351 | 0 | 244 | 1.6 | 3.2 | 0.00 | 0.00 | 0.00 | 82 | 1008.7 |
| 20260506082849 | 0 | 243 | 0.0 | 3.2 | 0.00 | 0.00 | 0.00 | 81 | 1008.7 |
| 20260506082349 | 0 | 243 | 1.6 | 3.2 | 0.00 | 0.00 | 0.00 | 80 | 1008.7 |
| 20260506081849 | 0 | 244 | 1.6 | 3.2 | 0.00 | 0.00 | 0.00 | 80 | 1008.7 |
| 20260506081349 | 0 | 243 | 1.6 | 3.2 | 0.00 | 0.00 | 0.00 | 79 | 1008.7 |
| 20260506080849 | 0 | 243 | 1.6 | 4.8 | 0.00 | 0.00 | 0.00 | 78 | 1008.8 |
| 20260506080618 | 0 | 243 | 3.2 | 4.8 | 0.00 | 0.00 | 0.00 | 77 | 1008.8 |
| 20260506080110 | 1 | 241 | 3.2 | 4.8 | 0.00 | 0.00 | 0.00 | 76 | 1008.8 |
| 20260506072835 | 1 | 276 | 1.6 | 6.4 | 0.00 | 0.00 | 0.00 | 72 | 1008.8 |
| 20260506072333 | 2 | 300 | 1.6 | 6.4 | 0.00 | 0.00 | 0.00 | 72 | 1008.8 |
| 20260506071834 | 2 | 314 | 3.2 | 8.0 | 0.00 | 0.00 | 0.00 | 72 | 1008.8 |
| 20260506071334 | 2 | 320 | 3.2 | 8.0 | 0.00 | 0.00 | 0.00 | 73 | 1008.8 |
| 20260506070833 | 2 | 305 | 1.6 | 8.0 | 0.00 | 0.00 | 0.00 | 74 | 1008.9 |
| 20260506070333 | 2 | 286 | 1.6 | 9.7 | 0.00 | 0.00 | 0.00 | 75 | 1008.9 |
| 20260506062333 | 2 | 355 | 8.0 | 11.3 | 0.00 | 0.00 | 0.00 | 76 | 1008.6 |
| 20260506061833 | 2 | 337 | 4.8 | 11.3 | 0.00 | 0.00 | 0.00 | 76 | 1008.7 |
| 20260506061556 | 2 | 340 | 3.2 | 9.7 | 0.00 | 0.00 | 0.00 | 76 | 1008.8 |
| 20260506060833 | 2 | 305 | 4.8 | 9.7 | 0.00 | 0.00 | 0.00 | 77 | 1008.8 |
| 20260506060332 | 2 | 353 | 3.2 | 8.0 | 0.00 | 0.00 | 0.00 | 78 | 1008.8 |
| 20260506050833 | 2 | 314 | 0.0 | 6.4 | 0.00 | 0.00 | 0.00 | 78 | 1009.1 |
| 20260506050332 | 2 | 357 | 1.6 | 6.4 | 0.00 | 0.00 | 0.00 | 78 | 1009.1 |
| 20260506044834 | 2 | 310 | 1.6 | 4.8 | 0.00 | 0.00 | 0.00 | 79 | 1009.2 |
| 20260506044333 | 2 | 358 | 3.2 | 6.4 | 0.00 | 0.00 | 0.00 | 79 | 1009.1 |
| 20260506044101 | 2 | 353 | 1.6 | 6.4 | 0.00 | 0.00 | 0.00 | 79 | 1009.1 |
| 20260506043334 | 2 | 355 | 3.2 | 4.8 | 0.00 | 0.00 | 0.00 | 79 | 1009.1 |
| 20260506042835 | 2 | 348 | 3.2 | 8.0 | 0.00 | 0.00 | 0.00 | 79 | 1009.1 |
| 20260506042334 | 3 | 1 | 4.8 | 8.0 | 0.00 | 0.00 | 0.00 | 79 | 1009.1 |
| 20260506041849 | 3 | 24 | 3.2 | 9.7 | 0.00 | 0.00 | 0.00 | 79 | 1009.0 |
| 20260506041559 | 3 | 333 | 1.6 | 9.7 | 0.00 | 0.00 | 0.00 | 79 | 1008.9 |
| 20260506040832 | 3 | 32 | 3.2 | 8.0 | 0.00 | 0.00 | 0.00 | 79 | 1008.7 |
| 20260506040329 | 3 | 8 | 1.6 | 8.0 | 0.00 | 0.00 | 0.00 | 78 | 1008.7 |
| 20260506040105 | 3 | 54 | 3.2 | 9.7 | 0.00 | 0.00 | 0.00 | 78 | 1008.7 |
| 20260506035329 | 3 | 358 | 3.2 | 9.7 | 0.00 | 0.00 | 0.00 | 78 | 1008.8 |
| 20260506034829 | 3 | 351 | 4.8 | 9.7 | 0.00 | 0.00 | 0.00 | 79 | 1008.8 |
| 20260506034328 | 3 | 12 | 4.8 | 9.7 | 0.00 | 0.00 | 0.00 | 79 | 1008.7 |
| 20260506033825 | 3 | 322 | 3.2 | 11.3 | 0.00 | 0.00 | 0.00 | 80 | 1008.8 |
| 20260506033551 | 3 | 323 | 3.2 | 11.3 | 0.00 | 0.00 | 0.00 | 80 | 1008.7 |
| 20260506032826 | 3 | 341 | 4.8 | 9.7 | 0.00 | 0.00 | 0.00 | 80 | 1008.6 |
| 20260506032329 | 3 | 353 | 3.2 | 9.7 | 0.00 | 0.00 | 0.00 | 81 | 1008.6 |
| 20260506031323 | 3 | 344 | 3.2 | 9.7 | 0.00 | 0.00 | 0.00 | 81 | 1008.5 |
| 20260506030823 | 3 | 5 | 4.8 | 9.7 | 0.00 | 0.00 | 0.00 | 81 | 1008.5 |
| 20260506030324 | 3 | 345 | 3.2 | 9.7 | 0.00 | 0.00 | 0.00 | 81 | 1008.4 |
| 20260506030059 | 3 | 299 | 4.8 | 9.7 | 0.00 | 0.00 | 0.00 | 80 | 1008.4 |
| 20260506025326 | 3 | 345 | 3.2 | 8.0 | 0.00 | 0.00 | 0.00 | 80 | 1008.2 |
| 20260506024820 | 3 | 1 | 3.2 | 14.5 | 0.00 | 0.00 | 0.00 | 80 | 1008.3 |
| 20260506024318 | 3 | 336 | 6.4 | 14.5 | 0.00 | 0.00 | 0.00 | 80 | 1008.2 |
| 20260506024044 | 3 | 1 | 4.8 | 14.5 | 0.00 | 0.00 | 0.00 | 80 | 1008.2 |
| 20260506023321 | 3 | 354 | 4.8 | 11.3 | 0.00 | 0.00 | 0.00 | 81 | 1008.1 |
| 20260506022818 | 3 | 300 | 3.2 | 11.3 | 0.00 | 0.00 | 0.00 | 82 | 1008.1 |
| 20260506022319 | 3 | 317 | 6.4 | 11.3 | 0.00 | 0.00 | 0.00 | 82 | 1008.0 |
| 20260506021815 | 3 | 19 | 3.2 | 11.3 | 0.00 | 0.00 | 0.00 | 82 | 1008.0 |
| 20260506021315 | 3 | 19 | 3.2 | 14.5 | 0.00 | 0.00 | 0.00 | 82 | 1007.9 |
| 20260506020813 | 3 | 310 | 4.8 | 14.5 | 0.00 | 0.00 | 0.00 | 82 | 1007.7 |
| 20260506020543 | 3 | 343 | 6.4 | 14.5 | 0.00 | 0.00 | 0.00 | 82 | 1007.7 |
| 20260506020040 | 3 | 354 | 4.8 | 16.1 | 0.00 | 0.00 | 0.00 | 82 | 1007.6 |
| 20260506015314 | 3 | 7 | 3.2 | 16.1 | 0.00 | 0.00 | 0.00 | 82 | 1007.6 |
| 20260506014811 | 3 | 334 | 6.4 | 16.1 | 0.00 | 0.03 | 0.00 | 82 | 1007.5 |
| 20260506014311 | 3 | 357 | 6.4 | 16.1 | 0.00 | 0.03 | 0.00 | 81 | 1007.4 |
| 20260506013810 | 3 | 333 | 6.4 | 16.1 | 0.00 | 0.03 | 0.00 | 82 | 1007.3 |
| 20260506013537 | 3 | 337 | 3.2 | 16.1 | 0.00 | 0.03 | 0.00 | 82 | 1007.2 |
| 20260506012810 | 3 | 343 | 4.8 | 17.7 | 0.00 | 0.03 | 0.00 | 82 | 1007.1 |
| 20260506012536 | 3 | 320 | 6.4 | 17.7 | 0.00 | 0.03 | 0.00 | 82 | 1007.2 |
| 20260506011808 | 3 | 323 | 6.4 | 16.1 | 0.00 | 0.03 | 0.00 | 82 | 1007.2 |
| 20260506011307 | 3 | 324 | 8.0 | 16.1 | 0.00 | 0.05 | 0.00 | 82 | 1007.1 |
| 20260506010808 | 3 | 354 | 8.0 | 16.1 | 0.00 | 0.05 | 0.00 | 82 | 1007.0 |
| 20260506010308 | 3 | 300 | 6.4 | 16.1 | 0.00 | 0.05 | 0.00 | 82 | 1006.9 |
| 20260506005808 | 3 | 345 | 6.4 | 17.7 | 0.00 | 0.05 | 0.00 | 82 | 1006.7 |
| 20260506005532 | 3 | 340 | 9.7 | 17.7 | 0.00 | 0.08 | 0.00 | 82 | 1006.7 |
| 20260506005035 | 3 | 326 | 6.4 | 16.1 | 0.00 | 0.08 | 0.00 | 82 | 1006.6 |
| 20260506004307 | 3 | 336 | 6.4 | 14.5 | 0.00 | 0.10 | 0.00 | 82 | 1006.6 |
| 20260506003807 | 3 | 290 | 4.8 | 11.3 | 0.00 | 0.13 | 0.00 | 82 | 1006.6 |
| 20260506003302 | 3 | 30 | 6.4 | 16.1 | 0.00 | 0.13 | 0.00 | 82 | 1006.5 |
| 20260506002801 | 4 | 2 | 4.8 | 16.1 | 0.00 | 0.15 | 0.00 | 82 | 1006.5 |
| 20260506002259 | 4 | 330 | 6.4 | 14.5 | 0.00 | 0.15 | 0.00 | 81 | 1006.5 |
| 20260506001756 | 4 | 353 | 6.4 | 17.7 | 0.00 | 0.18 | 0.00 | 81 | 1006.5 |
| 20260506001259 | 4 | 341 | 8.0 | 17.7 | 0.00 | 0.18 | 0.00 | 81 | 1006.5 |
| 20260506000754 | 4 | 344 | 6.4 | 14.5 | 0.00 | 0.20 | 0.00 | 81 | 1006.4 |
| 20260506000257 | 4 | 340 | 6.4 | 9.7 | 0.00 | 0.23 | 0.00 | 81 | 1006.3 |
| 20260505235750 | 4 | 327 | 4.8 | 11.3 | 0.00 | 0.28 | 0.00 | 81 | 1006.2 |
| 20260505235250 | 5 | 348 | 4.8 | 14.5 | 0.00 | 0.33 | 0.00 | 81 | 1006.2 |
| 20260505234751 | 5 | 14 | 8.0 | 14.5 | 0.00 | 0.41 | 0.00 | 80 | 1006.2 |
| 20260505234518 | 5 | 48 | 6.4 | 11.3 | 0.00 | 0.41 | 0.00 | 80 | 1006.1 |
| 20260505233750 | 5 | 347 | 4.8 | 14.5 | 0.00 | 0.41 | 0.00 | 80 | 1006.2 |
| 20260505233249 | 5 | 300 | 4.8 | 14.5 | 0.00 | 0.41 | 0.00 | 79 | 1006.0 |
| 20260505232750 | 5 | 319 | 4.8 | 14.5 | 0.00 | 0.41 | 0.00 | 79 | 1006.0 |
| 20260505232516 | 5 | 334 | 4.8 | 11.3 | 0.00 | 0.41 | 0.00 | 79 | 1005.9 |
| 20260505231749 | 5 | 7 | 3.2 | 11.3 | 0.00 | 0.41 | 0.00 | 79 | 1006.0 |
| 20260505231249 | 5 | 358 | 3.2 | 14.5 | 0.00 | 0.43 | 0.00 | 78 | 1005.9 |
| 20260505230749 | 5 | 25 | 4.8 | 14.5 | 0.00 | 0.43 | 0.00 | 77 | 1005.9 |
| 20260505230249 | 6 | 25 | 6.4 | 14.5 | 0.00 | 0.43 | 0.00 | 74 | 1005.8 |
| 20260505225748 | 6 | 25 | 3.2 | 11.3 | 0.00 | 0.43 | 0.00 | 73 | 1005.7 |
| 20260505225248 | 6 | 17 | 3.2 | 24.1 | 0.00 | 0.43 | 0.00 | 71 | 1005.8 |
| 20260505224748 | 7 | 333 | 8.0 | 24.1 | 0.00 | 0.43 | 0.00 | 68 | 1005.6 |
| 20260505224248 | 7 | 2 | 6.4 | 17.7 | 0.00 | 0.43 | 0.00 | 66 | 1005.6 |
| 20260505223748 | 7 | 25 | 9.7 | 17.7 | 0.00 | 0.43 | 0.00 | 64 | 1005.4 |
| 20260505223248 | 8 | 329 | 6.4 | 16.1 | 0.00 | 0.43 | 0.00 | 62 | 1005.5 |
| 20260505222748 | 8 | 329 | 6.4 | 16.1 | 0.00 | 0.43 | 0.00 | 59 | 1005.5 |
| 20260505222516 | 10 | 351 | 6.4 | 24.1 | 0.00 | 0.43 | 0.00 | 53 | 1005.3 |
| 20260505221748 | 11 | 337 | 8.0 | 30.6 | 0.00 | 0.43 | 0.00 | 42 | 1005.3 |
| 20260505221247 | 12 | 282 | 16.1 | 30.6 | 0.00 | 0.43 | 0.00 | 35 | 1005.1 |
| 20260505220747 | 12 | 293 | 9.7 | 20.9 | 0.00 | 0.43 | 0.00 | 36 | 1005.1 |
| 20260505220248 | 12 | 322 | 12.9 | 30.6 | 0.00 | 0.43 | 0.00 | 36 | 1005.0 |
| 20260505215746 | 12 | 295 | 16.1 | 30.6 | 0.00 | 0.43 | 0.00 | 35 | 1005.0 |
| 20260505215247 | 12 | 290 | 12.9 | 29.0 | 0.00 | 0.43 | 0.00 | 36 | 1005.0 |
| 20260505215019 | 12 | 276 | 8.0 | 29.0 | 0.00 | 0.43 | 0.00 | 36 | 1004.9 |
| 20260505214246 | 11 | 264 | 12.9 | 29.0 | 0.00 | 0.43 | 0.00 | 36 | 1004.8 |
| 20260505213746 | 11 | 316 | 11.3 | 29.0 | 0.00 | 0.43 | 0.00 | 38 | 1004.9 |
| 20260505213247 | 11 | 314 | 14.5 | 33.8 | 0.00 | 0.43 | 0.00 | 37 | 1004.9 |
| 20260505212748 | 11 | 17 | 9.7 | 35.4 | 0.00 | 0.43 | 0.00 | 36 | 1004.9 |
| 20260505212247 | 11 | 2 | 11.3 | 35.4 | 0.00 | 0.43 | 0.00 | 35 | 1004.9 |
| 20260505211745 | 11 | 283 | 9.7 | 32.2 | 0.00 | 0.43 | 0.00 | 35 | 1004.9 |
| 20260505211245 | 11 | 309 | 16.1 | 32.2 | 0.00 | 0.43 | 0.00 | 37 | 1004.9 |
| 20260505211017 | 11 | 305 | 12.9 | 29.0 | 0.00 | 0.43 | 0.00 | 37 | 1004.9 |
| 20260505210509 | 11 | 296 | 17.7 | 32.2 | 0.00 | 0.43 | 0.00 | 36 | 1004.8 |
| 20260505210012 | 11 | 292 | 14.5 | 32.2 | 0.00 | 0.43 | 0.00 | 37 | 1004.9 |
| 20260505205245 | 11 | 254 | 12.9 | 27.4 | 0.00 | 0.43 | 0.00 | 37 | 1004.7 |
| 20260505204745 | 11 | 358 | 14.5 | 27.4 | 0.00 | 0.43 | 0.00 | 37 | 1004.7 |
| 20260505204245 | 11 | 274 | 8.0 | 33.8 | 0.00 | 0.43 | 0.00 | 37 | 1004.7 |
| 20260505203744 | 11 | 348 | 16.1 | 33.8 | 0.00 | 0.43 | 0.00 | 36 | 1004.5 |
| 20260505203516 | 11 | 323 | 12.9 | 27.4 | 0.00 | 0.43 | 0.00 | 36 | 1004.5 |
| 20260505202745 | 12 | 336 | 12.9 | 27.4 | 0.00 | 0.43 | 0.00 | 35 | 1004.4 |
| 20260505202244 | 12 | 283 | 12.9 | 35.4 | 0.00 | 0.43 | 0.00 | 38 | 1004.4 |
| 20260505201745 | 11 | 267 | 19.3 | 35.4 | 0.00 | 0.43 | 0.00 | 38 | 1004.3 |
| 20260505201512 | 11 | 340 | 16.1 | 32.2 | 0.00 | 0.43 | 0.00 | 36 | 1004.4 |
| 20260505200744 | 11 | 282 | 14.5 | 32.2 | 0.00 | 0.43 | 0.00 | 39 | 1004.3 |
| 20260505200244 | 11 | 300 | 12.9 | 25.7 | 0.00 | 0.43 | 0.00 | 38 | 1004.2 |
| 20260505195743 | 12 | 334 | 12.9 | 25.7 | 0.00 | 0.43 | 0.00 | 38 | 1004.1 |
| 20260505195243 | 12 | 350 | 12.9 | 27.4 | 0.00 | 0.43 | 0.00 | 39 | 1004.4 |
| 20260505194743 | 12 | 282 | 14.5 | 29.0 | 0.00 | 0.43 | 0.00 | 40 | 1004.3 |
| 20260505194243 | 12 | 350 | 16.1 | 29.0 | 0.00 | 0.43 | 0.00 | 37 | 1004.2 |
| 20260505193745 | 12 | 330 | 12.9 | 29.0 | 0.00 | 0.43 | 0.00 | 40 | 1004.1 |
| 20260505193240 | 12 | 286 | 11.3 | 30.6 | 0.00 | 0.43 | 0.00 | 39 | 1004.1 |
| 20260505192740 | 12 | 320 | 16.1 | 30.6 | 0.00 | 0.43 | 0.00 | 38 | 1004.1 |
| 20260505192240 | 12 | 276 | 14.5 | 30.6 | 0.00 | 0.43 | 0.00 | 42 | 1004.1 |
| 20260505191738 | 12 | 286 | 14.5 | 32.2 | 0.00 | 0.43 | 0.00 | 42 | 1004.1 |
| 20260505191510 | 12 | 323 | 16.1 | 32.2 | 0.00 | 0.43 | 0.00 | 43 | 1003.9 |
| 20260505190738 | 12 | 288 | 6.4 | 30.6 | 0.00 | 0.43 | 0.00 | 46 | 1003.8 |
| 20260505190239 | 11 | 290 | 12.9 | 30.6 | 0.00 | 0.43 | 0.00 | 47 | 1003.9 |
| 20260505185723 | 11 | 279 | 14.5 | 38.6 | 0.00 | 0.43 | 0.00 | 46 | 1003.9 |
| 20260505185223 | 11 | 275 | 20.9 | 38.6 | 0.00 | 0.43 | 0.00 | 47 | 1003.8 |
| 20260505184722 | 12 | 298 | 14.5 | 29.0 | 0.00 | 0.43 | 0.00 | 47 | 1003.8 |
| 20260505184216 | 11 | 275 | 9.7 | 24.1 | 0.00 | 0.43 | 0.00 | 52 | 1003.7 |
| 20260505183717 | 9 | 307 | 6.4 | 24.1 | 0.00 | 0.43 | 0.00 | 62 | 1003.4 |
| 20260505183217 | 8 | 0 | 6.4 | 16.1 | 0.00 | 0.43 | 0.00 | 65 | 1003.5 |
| 20260505182716 | 7 | 19 | 6.4 | 14.5 | 0.00 | 0.43 | 0.00 | 69 | 1003.4 |
| 20260505182218 | 7 | 351 | 3.2 | 14.5 | 0.00 | 0.43 | 0.00 | 67 | 1003.8 |
| 20260505181714 | 7 | 25 | 6.4 | 17.7 | 0.00 | 0.43 | 0.00 | 68 | 1003.5 |
| 20260505181214 | 7 | 358 | 4.8 | 17.7 | 0.00 | 0.43 | 0.00 | 68 | 1003.8 |
| 20260505180715 | 7 | 24 | 4.8 | 32.2 | 0.00 | 0.43 | 0.00 | 68 | 1003.7 |
| 20260505180219 | 7 | 21 | 11.3 | 32.2 | 0.00 | 0.43 | 0.00 | 69 | 1003.4 |
| 20260505175748 | 7 | 14 | 9.7 | 22.5 | 0.00 | 0.43 | 0.00 | 69 | 1003.5 |
| 20260505175020 | 7 | 341 | 9.7 | 22.5 | 0.00 | 0.43 | 0.00 | 71 | 1003.7 |
| 20260505174746 | 7 | 14 | 4.8 | 17.7 | 0.00 | 0.43 | 0.00 | 71 | 1003.4 |
| 20260505174019 | 7 | 351 | 8.0 | 16.1 | 0.00 | 0.43 | 0.00 | 72 | 1003.5 |
| 20260505173519 | 6 | 0 | 4.8 | 16.1 | 0.00 | 0.43 | 0.00 | 71 | 1003.7 |
| 20260505173016 | 7 | 340 | 4.8 | 16.1 | 0.00 | 0.43 | 0.00 | 73 | 1003.7 |
| 20260505172518 | 7 | 333 | 6.4 | 17.7 | 0.00 | 0.43 | 0.00 | 71 | 1003.7 |
| 20260505172015 | 7 | 355 | 6.4 | 17.7 | 0.00 | 0.43 | 0.00 | 74 | 1003.5 |
| 20260505171513 | 6 | 288 | 6.4 | 16.1 | 0.00 | 0.43 | 0.00 | 72 | 1003.8 |
| 20260505171012 | 6 | 42 | 6.4 | 16.1 | 0.00 | 0.43 | 0.00 | 71 | 1003.7 |
| 20260505170513 | 6 | 358 | 6.4 | 16.1 | 0.00 | 0.43 | 0.00 | 72 | 1003.7 |
| 20260505170015 | 6 | 357 | 8.0 | 17.7 | 0.00 | 0.43 | 0.00 | 73 | 1003.5 |
| 20260505165511 | 6 | 69 | 6.4 | 19.3 | 0.00 | 0.43 | 0.00 | 72 | 1003.7 |
| 20260505165009 | 6 | 334 | 8.0 | 19.3 | 0.00 | 0.43 | 0.00 | 72 | 1003.7 |
| 20260505164511 | 6 | 314 | 6.4 | 24.1 | 0.00 | 0.43 | 0.00 | 72 | 1003.8 |
| 20260505164010 | 6 | 355 | 6.4 | 24.1 | 0.00 | 0.43 | 0.00 | 71 | 1003.5 |
| 20260505163507 | 6 | 250 | 9.7 | 19.3 | 0.00 | 0.43 | 0.00 | 70 | 1003.4 |
| 20260505163009 | 7 | 329 | 9.7 | 20.9 | 0.00 | 0.43 | 0.00 | 68 | 1003.4 |
| 20260505162505 | 7 | 327 | 11.3 | 20.9 | 0.00 | 0.43 | 0.00 | 63 | 1003.5 |
| 20260505162247 | 8 | 302 | 6.4 | 24.1 | 0.00 | 0.43 | 0.00 | 60 | 1003.4 |
| 20260505161505 | 9 | 357 | 9.7 | 24.1 | 0.00 | 0.43 | 0.00 | 55 | 1003.2 |
| 20260505161006 | 9 | 347 | 12.9 | 24.1 | 0.00 | 0.43 | 0.00 | 58 | 1003.3 |
| 20260505160732 | 8 | 343 | 8.0 | 24.1 | 0.00 | 0.43 | 0.00 | 56 | 1003.5 |
| 20260505153002 | 8 | 257 | 9.7 | 27.4 | 0.00 | 0.43 | 0.00 | 58 | 1003.3 |
| 20260505152502 | 8 | 286 | 12.9 | 27.4 | 0.00 | 0.43 | 0.00 | 58 | 1003.3 |
| 20260505152004 | 8 | 290 | 11.3 | 24.1 | 0.00 | 0.43 | 0.00 | 65 | 1003.4 |
| 20260505151502 | 8 | 265 | 12.9 | 25.7 | 0.00 | 0.43 | 0.00 | 66 | 1003.4 |
| 20260505151003 | 8 | 330 | 8.0 | 25.7 | 0.00 | 0.43 | 0.00 | 67 | 1003.2 |
| 20260505150502 | 8 | 344 | 11.3 | 22.5 | 0.00 | 0.43 | 0.00 | 68 | 1003.2 |
| 20260505150223 | 7 | 285 | 12.9 | 22.5 | 0.00 | 0.43 | 0.00 | 70 | 1003.2 |
| 20260505140610 | 6 | 27 | 3.2 | 14.5 | 0.00 | 0.43 | 0.00 | 79 | 1002.2 |
| 20260505124943 | 6 | 300 | 9.7 | 19.3 | 0.00 | 0.43 | 0.00 | 70 | 1001.3 |
| 20260505124444 | 6 | 327 | 9.7 | 19.3 | 0.00 | 0.43 | 0.00 | 70 | 1001.3 |
| 20260505123943 | 6 | 302 | 4.8 | 16.1 | 0.00 | 0.43 | 0.00 | 72 | 1001.5 |
| 20260505123443 | 6 | 7 | 8.0 | 16.1 | 0.00 | 0.43 | 0.00 | 73 | 1001.3 |
| 20260505122943 | 6 | 306 | 4.8 | 16.1 | 0.00 | 0.43 | 0.00 | 73 | 1001.4 |
| 20260505122439 | 6 | 324 | 4.8 | 11.3 | 0.00 | 0.43 | 0.00 | 75 | 1001.3 |
| 20260505122215 | 6 | 296 | 6.4 | 14.5 | 0.00 | 0.43 | 0.00 | 75 | 1001.2 |
| 20260505121433 | 5 | 293 | 1.6 | 14.5 | 0.00 | 0.43 | 0.00 | 75 | 1001.2 |
| 20260505120935 | 5 | 313 | 8.0 | 14.5 | 0.00 | 0.43 | 0.00 | 76 | 1001.1 |
| 20260505120436 | 5 | 257 | 6.4 | 11.3 | 0.00 | 0.43 | 0.00 | 76 | 1001.1 |
| 20260505115936 | 5 | 275 | 4.8 | 16.1 | 0.00 | 0.43 | 0.00 | 76 | 1001.2 |
| 20260505115433 | 5 | 344 | 3.2 | 16.1 | 0.00 | 0.43 | 0.00 | 76 | 1001.1 |
| 20260505114946 | 5 | 14 | 4.8 | 14.5 | 0.00 | 0.43 | 0.00 | 76 | 1000.9 |
| 20260505113932 | 5 | 298 | 8.0 | 14.5 | 0.00 | 0.43 | 0.00 | 77 | 1000.9 |
| 20260505113432 | 5 | 327 | 6.4 | 14.5 | 0.00 | 0.43 | 0.00 | 78 | 1000.8 |
| 20260505112932 | 5 | 314 | 8.0 | 16.1 | 0.00 | 0.43 | 0.00 | 79 | 1000.8 |
| 20260505112433 | 5 | 316 | 6.4 | 16.1 | 0.00 | 0.43 | 0.00 | 80 | 1000.8 |
| 20260505111937 | 5 | 303 | 6.4 | 14.5 | 0.00 | 0.43 | 0.00 | 80 | 1000.7 |
| 20260505111432 | 5 | 286 | 8.0 | 11.3 | 0.00 | 0.43 | 0.00 | 81 | 1000.5 |
| 20260505111202 | 4 | 278 | 6.4 | 11.3 | 0.00 | 0.43 | 0.00 | 82 | 1000.4 |
| 20260505110432 | 4 | 281 | 6.4 | 9.7 | 0.00 | 0.43 | 0.00 | 82 | 1000.3 |
| 20260505101933 | 4 | 272 | 6.4 | 11.3 | 0.00 | 0.43 | 0.00 | 82 | 999.5 |
| 20260505101433 | 4 | 285 | 8.0 | 11.3 | 0.00 | 0.43 | 0.00 | 81 | 999.5 |
| 20260505100933 | 4 | 258 | 6.4 | 11.3 | 0.00 | 0.43 | 0.00 | 81 | 999.5 |
| 20260505100433 | 5 | 288 | 6.4 | 11.3 | 0.00 | 0.43 | 0.00 | 81 | 999.4 |
| 20260505095933 | 5 | 309 | 4.8 | 11.3 | 0.00 | 0.43 | 0.00 | 80 | 999.3 |
| 20260505095706 | 5 | 293 | 6.4 | 11.3 | 0.00 | 0.43 | 0.00 | 80 | 999.3 |
| 20260505094933 | 5 | 316 | 6.4 | 8.0 | 0.00 | 0.43 | 0.00 | 79 | 999.1 |
| 20260505094432 | 5 | 290 | 6.4 | 8.0 | 0.00 | 0.43 | 0.00 | 79 | 999.2 |
| 20260505093932 | 5 | 337 | 4.8 | 9.7 | 0.00 | 0.43 | 0.00 | 79 | 999.1 |
| 20260505093710 | 5 | 303 | 4.8 | 11.3 | 0.00 | 0.43 | 0.00 | 78 | 999.1 |
| 20260505092933 | 5 | 341 | 4.8 | 11.3 | 0.00 | 0.43 | 0.00 | 79 | 999.1 |
| 20260505092433 | 5 | 285 | 4.8 | 16.1 | 0.00 | 0.43 | 0.00 | 78 | 998.9 |
| 20260505091933 | 5 | 234 | 4.8 | 16.1 | 0.00 | 0.43 | 0.00 | 78 | 999.0 |
| 20260505091432 | 5 | 298 | 3.2 | 16.1 | 0.00 | 0.43 | 0.00 | 78 | 998.8 |
| 20260505090933 | 5 | 305 | 6.4 | 24.1 | 0.00 | 0.43 | 0.00 | 77 | 998.7 |
| 20260505090700 | 5 | 314 | 6.4 | 24.1 | 0.00 | 0.43 | 0.00 | 77 | 998.7 |
| 20260505085933 | 6 | 286 | 8.0 | 17.7 | 0.00 | 0.43 | 0.00 | 77 | 998.6 |
| 20260505085433 | 6 | 326 | 8.0 | 14.5 | 0.00 | 0.43 | 0.00 | 76 | 998.6 |